Year,Month,Day,Hour,Minute,Value (Times are PST for temperature in C)
2016,03,05,00,00,10.00
2016,03,05,00,01,10.00
2016,03,05,00,02,10.00
2016,03,05,00,03,9.90
2016,03,05,00,04,9.90
2016,03,05,00,05,9.80
2016,03,05,00,06,9.80
2016,03,05,00,07,9.80
2016,03,05,00,08,9.80
2016,03,05,00,09,9.70
2016,03,05,00,10,9.70
2016,03,05,00,11,9.70
2016,03,05,00,12,9.70
2016,03,05,00,13,9.70
2016,03,05,00,14,9.70
2016,03,05,00,15,9.70
2016,03,05,00,16,9.80
2016,03,05,00,17,9.80
2016,03,05,00,18,9.80
2016,03,05,00,19,9.80
2016,03,05,00,20,9.90
2016,03,05,00,21,9.90
2016,03,05,00,22,9.90
2016,03,05,00,23,9.90
2016,03,05,00,24,9.80
2016,03,05,00,25,9.90
2016,03,05,00,26,9.80
2016,03,05,00,27,9.80
2016,03,05,00,28,9.80
2016,03,05,00,29,9.80
2016,03,05,00,30,9.80
2016,03,05,00,31,9.80
2016,03,05,00,32,9.80
2016,03,05,00,33,9.80
2016,03,05,00,34,9.70
2016,03,05,00,35,9.70
2016,03,05,00,36,9.70
2016,03,05,00,37,9.80
2016,03,05,00,38,9.80
2016,03,05,00,39,9.80
2016,03,05,00,40,9.80
2016,03,05,00,41,9.70
2016,03,05,00,42,9.70
2016,03,05,00,43,9.70
2016,03,05,00,44,9.60
2016,03,05,00,45,9.60
2016,03,05,00,46,9.60
2016,03,05,00,47,9.50
2016,03,05,00,48,9.50
2016,03,05,00,49,9.50
2016,03,05,00,50,9.50
2016,03,05,00,51,9.50
2016,03,05,00,52,9.50
2016,03,05,00,53,9.40
2016,03,05,00,54,9.40
2016,03,05,00,55,9.40
2016,03,05,00,56,9.40
2016,03,05,00,57,9.40
2016,03,05,00,58,9.50
2016,03,05,00,59,9.50
2016,03,05,01,00,9.50
2016,03,05,01,01,9.50
2016,03,05,01,02,9.50
2016,03,05,01,03,9.50
2016,03,05,01,04,9.60
2016,03,05,01,05,9.60
2016,03,05,01,06,9.60
2016,03,05,01,07,9.70
2016,03,05,01,08,9.70
2016,03,05,01,09,9.70
2016,03,05,01,10,9.70
2016,03,05,01,11,9.80
2016,03,05,01,12,9.80
2016,03,05,01,13,9.80
2016,03,05,01,14,9.80
2016,03,05,01,15,9.80
2016,03,05,01,16,9.80
2016,03,05,01,17,9.80
2016,03,05,01,18,9.80
2016,03,05,01,19,9.80
2016,03,05,01,20,9.80
2016,03,05,01,21,9.80
2016,03,05,01,22,9.80
2016,03,05,01,23,9.80
2016,03,05,01,24,9.80
2016,03,05,01,25,9.90
2016,03,05,01,26,9.90
2016,03,05,01,27,9.90
2016,03,05,01,28,9.90
2016,03,05,01,29,9.90
2016,03,05,01,30,9.90
2016,03,05,01,31,9.90
2016,03,05,01,32,10.00
2016,03,05,01,33,10.00
2016,03,05,01,34,10.10
2016,03,05,01,35,10.10
2016,03,05,01,36,10.20
2016,03,05,01,37,10.20
2016,03,05,01,38,10.30
2016,03,05,01,39,10.30
2016,03,05,01,40,10.40
2016,03,05,01,41,10.40
2016,03,05,01,42,10.40
2016,03,05,01,43,10.40
2016,03,05,01,44,10.40
2016,03,05,01,45,10.40
2016,03,05,01,46,10.30
2016,03,05,01,47,10.40
2016,03,05,01,48,10.40
2016,03,05,01,49,10.40
2016,03,05,01,50,10.50
2016,03,05,01,51,10.50
2016,03,05,01,52,10.60
2016,03,05,01,53,10.60
2016,03,05,01,54,10.70
2016,03,05,01,55,10.70
2016,03,05,01,56,10.70
2016,03,05,01,57,10.70
2016,03,05,01,58,10.70
2016,03,05,01,59,10.70
2016,03,05,02,00,10.70
2016,03,05,02,01,10.70
2016,03,05,02,02,10.70
2016,03,05,02,03,10.70
2016,03,05,02,04,10.60
2016,03,05,02,05,10.60
2016,03,05,02,06,10.60
2016,03,05,02,07,10.60
2016,03,05,02,08,10.50
2016,03,05,02,09,10.50
2016,03,05,02,10,10.60
2016,03,05,02,11,10.60
2016,03,05,02,12,10.60
2016,03,05,02,13,10.60
2016,03,05,02,14,10.70
2016,03,05,02,15,10.70
2016,03,05,02,16,10.70
2016,03,05,02,17,10.70
2016,03,05,02,18,10.80
2016,03,05,02,19,10.80
2016,03,05,02,20,10.80
2016,03,05,02,21,10.80
2016,03,05,02,22,10.80
2016,03,05,02,23,10.70
2016,03,05,02,24,10.70
2016,03,05,02,25,10.60
2016,03,05,02,26,10.60
2016,03,05,02,27,10.70
2016,03,05,02,28,10.70
2016,03,05,02,29,10.70
2016,03,05,02,30,10.70
2016,03,05,02,31,10.80
2016,03,05,02,32,10.80
2016,03,05,02,33,10.80
2016,03,05,02,34,10.80
2016,03,05,02,35,10.80
2016,03,05,02,36,10.80
2016,03,05,02,37,10.80
2016,03,05,02,38,10.70
2016,03,05,02,39,10.70
2016,03,05,02,40,10.70
2016,03,05,02,41,10.70
2016,03,05,02,42,10.60
2016,03,05,02,43,10.60
2016,03,05,02,44,10.60
2016,03,05,02,45,10.60
2016,03,05,02,46,10.60
2016,03,05,02,47,10.50
2016,03,05,02,48,10.50
2016,03,05,02,49,10.50
2016,03,05,02,50,10.50
2016,03,05,02,51,10.50
2016,03,05,02,52,10.50
2016,03,05,02,53,10.50
2016,03,05,02,54,10.40
2016,03,05,02,55,10.40
2016,03,05,02,56,10.40
2016,03,05,02,57,10.40
2016,03,05,02,58,10.30
2016,03,05,02,59,10.30
2016,03,05,03,00,10.30
2016,03,05,03,01,10.30
2016,03,05,03,02,10.30
2016,03,05,03,03,10.30
2016,03,05,03,04,10.30
2016,03,05,03,05,10.30
2016,03,05,03,06,10.30
2016,03,05,03,07,10.30
2016,03,05,03,08,10.30
2016,03,05,03,09,10.30
2016,03,05,03,10,10.30
2016,03,05,03,11,10.30
2016,03,05,03,12,10.30
2016,03,05,03,13,10.30
2016,03,05,03,14,10.30
2016,03,05,03,15,10.30
2016,03,05,03,16,10.30
2016,03,05,03,17,10.30
2016,03,05,03,18,10.30
2016,03,05,03,19,10.30
2016,03,05,03,20,10.30
2016,03,05,03,21,10.30
2016,03,05,03,22,10.30
2016,03,05,03,23,10.30
2016,03,05,03,24,10.20
2016,03,05,03,25,10.20
2016,03,05,03,26,10.20
2016,03,05,03,27,10.20
2016,03,05,03,28,10.20
2016,03,05,03,29,10.20
2016,03,05,03,30,10.20
2016,03,05,03,31,10.20
2016,03,05,03,32,10.20
2016,03,05,03,33,10.20
2016,03,05,03,34,10.20
2016,03,05,03,35,10.20
2016,03,05,03,36,10.30
2016,03,05,03,37,10.30
2016,03,05,03,38,10.30
2016,03,05,03,39,10.30
2016,03,05,03,40,10.30
2016,03,05,03,41,10.30
2016,03,05,03,42,10.30
2016,03,05,03,43,10.30
2016,03,05,03,44,10.30
2016,03,05,03,45,10.20
2016,03,05,03,46,10.20
2016,03,05,03,47,10.10
2016,03,05,03,48,10.10
2016,03,05,03,49,10.10
2016,03,05,03,50,10.10
2016,03,05,03,51,10.10
2016,03,05,03,52,10.10
2016,03,05,03,53,10.10
2016,03,05,03,54,10.00
2016,03,05,03,55,10.10
2016,03,05,03,56,10.10
2016,03,05,03,57,10.10
2016,03,05,03,58,10.10
2016,03,05,03,59,10.10
2016,03,05,04,00,10.10
2016,03,05,04,01,10.10
2016,03,05,04,02,10.10
2016,03,05,04,03,10.10
2016,03,05,04,04,10.10
2016,03,05,04,05,10.10
2016,03,05,04,06,10.10
2016,03,05,04,07,10.10
2016,03,05,04,08,10.10
2016,03,05,04,09,10.10
2016,03,05,04,10,10.10
2016,03,05,04,11,10.10
2016,03,05,04,12,10.10
2016,03,05,04,13,10.10
2016,03,05,04,14,10.10
2016,03,05,04,15,10.10
2016,03,05,04,16,10.10
2016,03,05,04,17,10.10
2016,03,05,04,18,10.10
2016,03,05,04,19,10.10
2016,03,05,04,20,10.20
2016,03,05,04,21,10.20
2016,03,05,04,22,10.20
2016,03,05,04,23,10.20
2016,03,05,04,24,10.20
2016,03,05,04,25,10.20
2016,03,05,04,26,10.20
2016,03,05,04,27,10.20
2016,03,05,04,28,10.10
2016,03,05,04,29,10.10
2016,03,05,04,30,10.10
2016,03,05,04,31,10.10
2016,03,05,04,32,10.10
2016,03,05,04,33,10.00
2016,03,05,04,34,10.00
2016,03,05,04,35,10.00
2016,03,05,04,36,9.90
2016,03,05,04,37,10.00
2016,03,05,04,38,10.00
2016,03,05,04,39,10.10
2016,03,05,04,40,10.10
2016,03,05,04,41,10.10
2016,03,05,04,42,10.10
2016,03,05,04,43,10.20
2016,03,05,04,44,10.30
2016,03,05,04,45,10.40
2016,03,05,04,46,10.40
2016,03,05,04,47,10.40
2016,03,05,04,48,10.40
2016,03,05,04,49,10.30
2016,03,05,04,50,10.30
2016,03,05,04,51,10.30
2016,03,05,04,52,10.30
2016,03,05,04,53,10.30
2016,03,05,04,54,10.30
2016,03,05,04,55,10.40
2016,03,05,04,56,10.50
2016,03,05,04,57,10.50
2016,03,05,04,58,10.40
2016,03,05,04,59,10.30
2016,03,05,05,00,10.20
2016,03,05,05,01,10.20
2016,03,05,05,02,10.20
2016,03,05,05,03,10.20
2016,03,05,05,04,10.20
2016,03,05,05,05,10.10
2016,03,05,05,06,10.10
2016,03,05,05,07,10.10
2016,03,05,05,08,10.10
2016,03,05,05,09,10.10
2016,03,05,05,10,10.20
2016,03,05,05,11,10.20
2016,03,05,05,12,10.20
2016,03,05,05,13,10.30
2016,03,05,05,14,10.30
2016,03,05,05,15,10.40
2016,03,05,05,16,10.40
2016,03,05,05,17,10.40
2016,03,05,05,18,10.40
2016,03,05,05,19,10.40
2016,03,05,05,20,10.30
2016,03,05,05,21,10.30
2016,03,05,05,22,10.30
2016,03,05,05,23,10.30
2016,03,05,05,24,10.30
2016,03,05,05,25,10.30
2016,03,05,05,26,10.30
2016,03,05,05,27,10.30
2016,03,05,05,28,10.20
2016,03,05,05,29,10.20
2016,03,05,05,30,10.20
2016,03,05,05,31,10.20
2016,03,05,05,32,10.20
2016,03,05,05,33,10.20
2016,03,05,05,34,10.20
2016,03,05,05,35,10.20
2016,03,05,05,36,10.10
2016,03,05,05,37,10.10
2016,03,05,05,38,10.10
2016,03,05,05,39,10.20
2016,03,05,05,40,10.10
2016,03,05,05,41,10.10
2016,03,05,05,42,10.10
2016,03,05,05,43,10.10
2016,03,05,05,44,10.10
2016,03,05,05,45,10.10
2016,03,05,05,46,10.10
2016,03,05,05,47,10.20
2016,03,05,05,48,10.20
2016,03,05,05,49,10.20
2016,03,05,05,50,10.30
2016,03,05,05,51,10.30
2016,03,05,05,52,10.30
2016,03,05,05,53,10.30
2016,03,05,05,54,10.30
2016,03,05,05,55,10.30
2016,03,05,05,56,10.30
2016,03,05,05,57,10.30
2016,03,05,05,58,10.30
2016,03,05,05,59,10.30
2016,03,05,06,00,10.30
2016,03,05,06,01,10.30
2016,03,05,06,02,10.30
2016,03,05,06,03,10.30
2016,03,05,06,04,10.30
2016,03,05,06,05,10.30
2016,03,05,06,06,10.30
2016,03,05,06,07,10.20
2016,03,05,06,08,10.20
2016,03,05,06,09,10.20
2016,03,05,06,10,10.10
2016,03,05,06,11,10.10
2016,03,05,06,12,10.10
2016,03,05,06,13,10.10
2016,03,05,06,14,10.10
2016,03,05,06,15,10.00
2016,03,05,06,16,10.00
2016,03,05,06,17,10.00
2016,03,05,06,18,10.00
2016,03,05,06,19,9.90
2016,03,05,06,20,9.90
2016,03,05,06,21,9.90
2016,03,05,06,22,9.90
2016,03,05,06,23,9.90
2016,03,05,06,24,10.00
2016,03,05,06,25,10.00
2016,03,05,06,26,9.90
2016,03,05,06,27,10.00
2016,03,05,06,28,10.00
2016,03,05,06,29,10.00
2016,03,05,06,30,10.00
2016,03,05,06,31,10.00
2016,03,05,06,32,10.00
2016,03,05,06,33,10.00
2016,03,05,06,34,9.90
2016,03,05,06,35,9.90
2016,03,05,06,36,9.90
2016,03,05,06,37,9.90
2016,03,05,06,38,9.80
2016,03,05,06,39,9.80
2016,03,05,06,40,9.80
2016,03,05,06,41,9.80
2016,03,05,06,42,9.80
2016,03,05,06,43,9.80
2016,03,05,06,44,9.80
2016,03,05,06,45,9.80
2016,03,05,06,46,9.80
2016,03,05,06,47,9.80
2016,03,05,06,48,9.80
2016,03,05,06,49,9.90
2016,03,05,06,50,9.90
2016,03,05,06,51,9.90
2016,03,05,06,52,9.90
2016,03,05,06,53,9.90
2016,03,05,06,54,9.90
2016,03,05,06,55,9.90
2016,03,05,06,56,9.90
2016,03,05,06,57,10.00
2016,03,05,06,58,10.00
2016,03,05,06,59,10.00
2016,03,05,07,00,10.00
2016,03,05,07,01,10.00
2016,03,05,07,02,10.10
2016,03,05,07,03,10.10
2016,03,05,07,04,10.10
2016,03,05,07,05,10.10
2016,03,05,07,06,10.10
2016,03,05,07,07,10.10
2016,03,05,07,08,10.10
2016,03,05,07,09,10.10
2016,03,05,07,10,10.10
2016,03,05,07,11,10.10
2016,03,05,07,12,10.10
2016,03,05,07,13,10.00
2016,03,05,07,14,10.00
2016,03,05,07,15,10.00
2016,03,05,07,16,10.10
2016,03,05,07,17,10.10
2016,03,05,07,18,10.10
2016,03,05,07,19,10.10
2016,03,05,07,20,10.20
2016,03,05,07,21,10.20
2016,03,05,07,22,10.20
2016,03,05,07,23,10.30
2016,03,05,07,24,10.30
2016,03,05,07,25,10.30
2016,03,05,07,26,10.40
2016,03,05,07,27,10.40
2016,03,05,07,28,10.50
2016,03,05,07,29,10.60
2016,03,05,07,30,10.60
2016,03,05,07,31,10.70
2016,03,05,07,32,10.70
2016,03,05,07,33,10.70
2016,03,05,07,34,10.80
2016,03,05,07,35,10.80
2016,03,05,07,36,10.80
2016,03,05,07,37,10.80
2016,03,05,07,38,10.90
2016,03,05,07,39,10.90
2016,03,05,07,40,11.00
2016,03,05,07,41,11.00
2016,03,05,07,42,11.10
2016,03,05,07,43,11.20
2016,03,05,07,44,11.20
2016,03,05,07,45,11.30
2016,03,05,07,46,11.30
2016,03,05,07,47,11.30
2016,03,05,07,48,11.40
2016,03,05,07,49,11.40
2016,03,05,07,50,11.40
2016,03,05,07,51,11.40
2016,03,05,07,52,11.40
2016,03,05,07,53,11.50
2016,03,05,07,54,11.50
2016,03,05,07,55,11.50
2016,03,05,07,56,11.60
2016,03,05,07,57,11.60
2016,03,05,07,58,11.60
2016,03,05,07,59,11.60
2016,03,05,08,00,11.60
2016,03,05,08,01,11.60
2016,03,05,08,02,11.60
2016,03,05,08,03,11.60
2016,03,05,08,04,11.60
2016,03,05,08,05,11.50
2016,03,05,08,06,11.50
2016,03,05,08,07,11.50
2016,03,05,08,08,11.50
2016,03,05,08,09,11.50
2016,03,05,08,10,11.50
2016,03,05,08,11,11.50
2016,03,05,08,12,11.60
2016,03,05,08,13,11.60
2016,03,05,08,14,11.60
2016,03,05,08,15,11.60
2016,03,05,08,16,11.70
2016,03,05,08,17,11.70
2016,03,05,08,18,11.70
2016,03,05,08,19,11.80
2016,03,05,08,20,11.80
2016,03,05,08,21,11.80
2016,03,05,08,22,11.90
2016,03,05,08,23,11.90
2016,03,05,08,24,11.90
2016,03,05,08,25,11.90
2016,03,05,08,26,11.90
2016,03,05,08,27,11.80
2016,03,05,08,28,11.80
2016,03,05,08,29,11.80
2016,03,05,08,30,11.70
2016,03,05,08,31,11.70
2016,03,05,08,32,11.70
2016,03,05,08,33,11.70
2016,03,05,08,34,11.80
2016,03,05,08,35,11.80
2016,03,05,08,36,11.80
2016,03,05,08,37,11.80
2016,03,05,08,38,11.80
2016,03,05,08,39,11.80
2016,03,05,08,40,11.80
2016,03,05,08,41,11.90
2016,03,05,08,42,11.90
2016,03,05,08,43,11.90
2016,03,05,08,44,11.80
2016,03,05,08,45,11.80
2016,03,05,08,46,11.90
2016,03,05,08,47,11.90
2016,03,05,08,48,11.80
2016,03,05,08,49,11.70
2016,03,05,08,50,11.70
2016,03,05,08,51,11.60
2016,03,05,08,52,11.60
2016,03,05,08,53,11.60
2016,03,05,08,54,11.50
2016,03,05,08,55,11.40
2016,03,05,08,56,11.20
2016,03,05,08,57,11.00
2016,03,05,08,58,10.90
2016,03,05,08,59,10.70
2016,03,05,09,00,10.60
2016,03,05,09,01,10.50
2016,03,05,09,02,10.40
2016,03,05,09,03,10.30
2016,03,05,09,04,10.20
2016,03,05,09,05,10.20
2016,03,05,09,06,10.20
2016,03,05,09,07,10.10
2016,03,05,09,08,10.10
2016,03,05,09,09,10.00
2016,03,05,09,10,10.00
2016,03,05,09,11,9.90
2016,03,05,09,12,9.90
2016,03,05,09,13,9.80
2016,03,05,09,14,9.80
2016,03,05,09,15,9.70
2016,03,05,09,16,9.70
2016,03,05,09,17,9.70
2016,03,05,09,18,9.70
2016,03,05,09,19,9.70
2016,03,05,09,20,9.60
2016,03,05,10,06,9.30
2016,03,05,10,07,9.30
2016,03,05,10,08,9.30
2016,03,05,10,09,9.30
2016,03,05,10,10,9.30
2016,03,05,10,11,9.30
2016,03,05,10,12,9.30
2016,03,05,10,13,9.30
2016,03,05,10,14,9.30
2016,03,05,10,15,9.30
2016,03,05,10,16,9.30
2016,03,05,10,17,9.30
2016,03,05,10,18,9.30
2016,03,05,10,19,9.30
2016,03,05,10,20,9.30
2016,03,05,10,21,9.30
2016,03,05,10,22,9.30
2016,03,05,10,23,9.30
2016,03,05,10,24,9.30
2016,03,05,10,25,9.30
2016,03,05,10,26,9.30
2016,03,05,10,27,9.30
2016,03,05,10,28,9.30
2016,03,05,10,29,9.30
2016,03,05,10,30,9.30
2016,03,05,10,31,9.30
2016,03,05,10,32,9.30
2016,03,05,10,33,9.30
2016,03,05,10,34,9.30
2016,03,05,10,35,9.30
2016,03,05,10,36,9.30
2016,03,05,10,37,9.30
2016,03,05,10,38,9.30
2016,03,05,10,39,9.30
2016,03,05,10,40,9.30
2016,03,05,10,41,9.30
2016,03,05,10,42,9.30
2016,03,05,10,43,9.30
2016,03,05,10,44,9.30
2016,03,05,10,45,9.30
2016,03,05,10,46,9.30
2016,03,05,10,47,9.30
2016,03,05,10,48,9.30
2016,03,05,10,49,9.30
2016,03,05,10,50,9.30
2016,03,05,10,51,9.30
2016,03,05,10,52,9.30
2016,03,05,10,53,9.30
2016,03,05,10,54,9.40
2016,03,05,10,55,9.40
2016,03,05,10,56,9.40
2016,03,05,10,57,9.40
2016,03,05,10,58,9.40
2016,03,05,10,59,9.40
2016,03,05,11,00,9.40
2016,03,05,11,01,9.40
2016,03,05,11,02,9.40
2016,03,05,11,03,9.40
2016,03,05,11,04,9.40
2016,03,05,11,05,9.40
2016,03,05,11,06,9.40
2016,03,05,11,07,9.40
2016,03,05,11,08,9.40
2016,03,05,11,09,9.40
2016,03,05,11,10,9.40
2016,03,05,11,11,9.40
2016,03,05,11,12,9.40
2016,03,05,11,13,9.40
2016,03,05,11,14,9.40
2016,03,05,11,15,9.40
2016,03,05,11,16,9.50
2016,03,05,11,17,9.50
2016,03,05,11,18,9.50
2016,03,05,11,19,9.50
2016,03,05,11,20,9.50
2016,03,05,11,21,9.50
2016,03,05,11,22,9.50
2016,03,05,11,23,9.50
2016,03,05,11,24,9.50
2016,03,05,11,25,9.60
2016,03,05,11,26,9.60
2016,03,05,11,27,9.60
2016,03,05,11,28,9.60
2016,03,05,11,29,9.60
2016,03,05,11,30,9.60
2016,03,05,11,31,9.60
2016,03,05,11,32,9.60
2016,03,05,11,33,9.60
2016,03,05,11,34,9.60
2016,03,05,11,35,9.60
2016,03,05,11,36,9.60
2016,03,05,11,37,9.60
2016,03,05,11,38,9.60
2016,03,05,11,39,9.60
2016,03,05,11,40,9.60
2016,03,05,11,41,9.60
2016,03,05,11,42,9.60
2016,03,05,11,43,9.60
2016,03,05,11,44,9.60
2016,03,05,11,45,9.60
2016,03,05,11,46,9.60
2016,03,05,11,47,9.60
2016,03,05,11,48,9.60
2016,03,05,11,49,9.60
2016,03,05,11,50,9.60
2016,03,05,11,51,9.60
2016,03,05,11,52,9.60
2016,03,05,11,53,9.60
2016,03,05,11,54,9.60
2016,03,05,11,55,9.60
2016,03,05,11,56,9.60
2016,03,05,11,57,9.70
2016,03,05,11,58,9.60
2016,03,05,11,59,9.60
2016,03,05,12,00,9.60
2016,03,05,12,01,9.60
2016,03,05,12,02,9.60
2016,03,05,12,03,9.60
2016,03,05,12,04,9.60
2016,03,05,12,05,9.60
2016,03,05,12,06,9.60
2016,03,05,12,07,9.60
2016,03,05,12,08,9.60
2016,03,05,12,09,9.60
2016,03,05,12,10,9.60
2016,03,05,12,11,9.60
2016,03,05,12,12,9.60
2016,03,05,12,13,9.60
2016,03,05,12,14,9.70
2016,03,05,12,15,9.60
2016,03,05,12,16,9.60
2016,03,05,12,17,9.70
2016,03,05,12,18,9.70
2016,03,05,12,19,9.70
2016,03,05,12,20,9.80
2016,03,05,12,21,9.80
2016,03,05,12,22,9.90
2016,03,05,12,23,9.90
2016,03,05,12,24,10.00
2016,03,05,12,25,10.00
2016,03,05,12,26,10.10
2016,03,05,12,27,10.10
2016,03,05,12,28,10.10
2016,03,05,12,29,10.10
2016,03,05,12,30,10.10
2016,03,05,12,31,10.10
2016,03,05,12,32,10.20
2016,03,05,12,33,10.20
2016,03,05,12,34,10.20
2016,03,05,12,35,10.20
2016,03,05,12,36,10.20
2016,03,05,12,37,10.20
2016,03,05,12,38,10.20
2016,03,05,12,39,10.20
2016,03,05,12,40,10.20
2016,03,05,12,41,10.20
2016,03,05,12,42,10.30
2016,03,05,12,43,10.30
2016,03,05,12,44,10.30
2016,03,05,12,45,10.30
2016,03,05,12,46,10.30
2016,03,05,12,47,10.30
2016,03,05,12,48,10.30
2016,03,05,12,49,10.30
2016,03,05,12,50,10.40
2016,03,05,12,51,10.40
2016,03,05,12,52,10.50
2016,03,05,12,53,10.50
2016,03,05,12,54,10.60
2016,03,05,12,55,10.70
2016,03,05,12,56,10.70
2016,03,05,12,57,10.70
2016,03,05,12,58,10.70
2016,03,05,12,59,10.80
2016,03,05,13,00,10.80
2016,03,05,13,01,10.80
2016,03,05,13,02,10.90
2016,03,05,13,03,10.90
2016,03,05,13,04,10.90
2016,03,05,13,05,10.90
2016,03,05,13,06,11.00
2016,03,05,13,07,11.00
2016,03,05,13,08,11.00
2016,03,05,13,09,11.00
2016,03,05,13,10,11.00
2016,03,05,13,11,11.10
2016,03,05,13,12,11.20
2016,03,05,13,13,11.20
2016,03,05,13,14,11.20
2016,03,05,13,15,11.20
2016,03,05,13,16,11.30
2016,03,05,13,17,11.30
2016,03,05,13,18,11.30
2016,03,05,13,19,11.30
2016,03,05,13,20,11.30
2016,03,05,13,21,11.30
2016,03,05,13,22,11.30
2016,03,05,13,23,11.30
2016,03,05,13,24,11.30
2016,03,05,13,25,11.30
2016,03,05,13,26,11.30
2016,03,05,13,27,11.30
2016,03,05,13,28,11.20
2016,03,05,13,29,11.20
2016,03,05,13,30,11.20
2016,03,05,13,31,11.20
2016,03,05,13,32,11.20
2016,03,05,13,33,11.20
2016,03,05,13,34,11.20
2016,03,05,13,35,11.20
2016,03,05,13,36,11.20
2016,03,05,13,37,11.20
2016,03,05,13,38,11.20
2016,03,05,13,39,11.20
2016,03,05,13,40,11.10
2016,03,05,13,41,11.20
2016,03,05,13,42,11.30
2016,03,05,13,43,11.30
2016,03,05,13,44,11.40
2016,03,05,13,45,11.50
2016,03,05,13,46,11.50
2016,03,05,13,47,11.60
2016,03,05,13,48,11.70
2016,03,05,13,49,11.70
2016,03,05,13,50,11.70
2016,03,05,13,51,11.70
2016,03,05,13,52,11.70
2016,03,05,13,53,11.60
2016,03,05,13,54,11.60
2016,03,05,13,55,11.60
2016,03,05,13,56,11.50
2016,03,05,13,57,11.50
2016,03,05,13,58,11.50
2016,03,05,13,59,11.60
2016,03,05,14,00,11.70
2016,03,05,14,01,11.70
2016,03,05,14,02,11.80
2016,03,05,14,03,11.90
2016,03,05,14,04,11.90
2016,03,05,14,05,11.90
2016,03,05,14,06,11.90
2016,03,05,14,07,11.90
2016,03,05,14,08,11.90
2016,03,05,14,09,11.90
2016,03,05,14,10,11.90
2016,03,05,14,11,11.90
2016,03,05,14,12,11.90
2016,03,05,14,13,11.90
2016,03,05,14,14,11.90
2016,03,05,14,15,11.90
2016,03,05,14,16,11.90
2016,03,05,14,17,11.90
2016,03,05,14,18,11.90
2016,03,05,14,19,11.80
2016,03,05,14,20,11.80
2016,03,05,14,21,11.80
2016,03,05,14,22,11.80
2016,03,05,14,23,11.80
2016,03,05,14,24,11.80
2016,03,05,14,25,11.80
2016,03,05,14,26,11.80
2016,03,05,14,27,11.80
2016,03,05,14,28,11.70
2016,03,05,14,29,11.60
2016,03,05,14,30,11.60
2016,03,05,14,31,11.60
2016,03,05,14,32,11.60
2016,03,05,14,33,11.60
2016,03,05,14,34,11.70
2016,03,05,14,35,11.70
2016,03,05,14,36,11.70
2016,03,05,14,37,11.70
2016,03,05,14,38,11.70
2016,03,05,14,39,11.70
2016,03,05,14,40,11.80
2016,03,05,14,41,11.90
2016,03,05,14,42,11.90
2016,03,05,14,43,11.90
2016,03,05,14,44,11.90
2016,03,05,14,45,11.90
2016,03,05,14,46,11.90
2016,03,05,14,47,11.80
2016,03,05,14,48,11.80
2016,03,05,14,49,11.80
2016,03,05,14,50,11.80
2016,03,05,14,51,11.90
2016,03,05,14,52,11.80
2016,03,05,14,53,11.80
2016,03,05,14,54,11.80
2016,03,05,14,55,11.90
2016,03,05,14,56,11.90
2016,03,05,14,57,11.90
2016,03,05,14,58,11.90
2016,03,05,14,59,11.90
2016,03,05,15,00,11.90
2016,03,05,15,01,11.90
2016,03,05,15,02,11.80
2016,03,05,15,03,11.80
2016,03,05,15,04,11.90
2016,03,05,15,05,11.90
2016,03,05,15,06,11.90
2016,03,05,15,07,11.90
2016,03,05,15,08,11.90
2016,03,05,15,09,11.90
2016,03,05,15,10,11.90
2016,03,05,15,11,11.80
2016,03,05,15,12,11.80
2016,03,05,15,13,11.70
2016,03,05,15,14,11.70
2016,03,05,15,15,11.70
2016,03,05,15,16,11.60
2016,03,05,15,17,11.60
2016,03,05,15,18,11.60
2016,03,05,15,19,11.50
2016,03,05,15,20,11.50
2016,03,05,15,21,11.40
2016,03,05,15,22,11.40
2016,03,05,15,23,11.30
2016,03,05,15,24,11.40
2016,03,05,15,25,11.40
2016,03,05,15,26,11.50
2016,03,05,15,27,11.60
2016,03,05,15,28,11.70
2016,03,05,15,29,11.80
2016,03,05,15,30,11.80
2016,03,05,15,31,11.80
2016,03,05,15,32,11.80
2016,03,05,15,33,11.80
2016,03,05,15,34,11.90
2016,03,05,15,35,11.90
2016,03,05,15,36,11.90
2016,03,05,15,37,11.90
2016,03,05,15,38,12.00
2016,03,05,15,39,12.00
2016,03,05,15,40,12.10
2016,03,05,15,41,12.20
2016,03,05,15,42,12.30
2016,03,05,15,43,12.40
2016,03,05,15,44,12.40
2016,03,05,15,45,12.50
2016,03,05,15,46,12.60
2016,03,05,15,47,12.70
2016,03,05,15,48,12.80
2016,03,05,15,49,12.80
2016,03,05,15,50,12.80
2016,03,05,15,51,12.80
2016,03,05,15,52,12.80
2016,03,05,15,53,12.70
2016,03,05,15,54,12.70
2016,03,05,15,55,12.60
2016,03,05,15,56,12.60
2016,03,05,15,57,12.60
2016,03,05,15,58,12.60
2016,03,05,15,59,12.60
2016,03,05,16,00,12.80
2016,03,05,16,01,12.90
2016,03,05,16,02,13.00
2016,03,05,16,03,13.00
2016,03,05,16,04,13.10
2016,03,05,16,05,13.10
2016,03,05,16,06,13.20
2016,03,05,16,07,13.20
2016,03,05,16,08,13.30
2016,03,05,16,09,13.30
2016,03,05,16,10,13.40
2016,03,05,16,11,13.30
2016,03,05,16,12,13.40
2016,03,05,16,13,13.50
2016,03,05,16,14,13.50
2016,03,05,16,15,13.60
2016,03,05,16,16,13.70
2016,03,05,16,17,13.70
2016,03,05,16,18,13.60
2016,03,05,16,19,13.50
2016,03,05,16,20,13.30
2016,03,05,16,21,13.20
2016,03,05,16,22,13.10
2016,03,05,16,23,13.10
2016,03,05,16,24,13.10
2016,03,05,16,25,13.10
2016,03,05,16,26,13.30
2016,03,05,16,27,13.30
2016,03,05,16,28,13.40
2016,03,05,16,29,13.40
2016,03,05,16,30,13.40
2016,03,05,16,31,13.40
2016,03,05,16,32,13.30
2016,03,05,16,33,13.20
2016,03,05,16,34,13.10
2016,03,05,16,35,13.10
2016,03,05,16,36,13.10
2016,03,05,16,37,13.20
2016,03,05,16,38,13.20
2016,03,05,16,39,13.10
2016,03,05,16,40,13.00
2016,03,05,16,41,12.90
2016,03,05,16,42,12.90
2016,03,05,16,43,12.90
2016,03,05,16,44,12.80
2016,03,05,16,45,12.80
2016,03,05,16,46,13.00
2016,03,05,16,47,13.20
2016,03,05,16,48,13.40
2016,03,05,16,49,13.50
2016,03,05,16,50,13.50
2016,03,05,16,51,13.40
2016,03,05,16,52,13.40
2016,03,05,16,53,13.30
2016,03,05,16,54,13.10
2016,03,05,16,55,13.00
2016,03,05,16,56,13.00
2016,03,05,16,57,13.00
2016,03,05,16,58,13.10
2016,03,05,16,59,13.10
2016,03,05,17,00,13.00
2016,03,05,17,01,13.00
2016,03,05,17,02,12.90
2016,03,05,17,03,12.70
2016,03,05,17,04,12.70
2016,03,05,17,05,12.70
2016,03,05,17,06,12.60
2016,03,05,17,07,12.50
2016,03,05,17,08,12.30
2016,03,05,17,09,12.20
2016,03,05,17,10,12.10
2016,03,05,17,11,12.10
2016,03,05,17,12,12.10
2016,03,05,17,13,12.20
2016,03,05,17,14,12.30
2016,03,05,17,15,12.40
2016,03,05,17,16,12.40
2016,03,05,17,17,12.30
2016,03,05,17,18,12.20
2016,03,05,17,19,12.10
2016,03,05,17,20,12.00
2016,03,05,17,21,12.00
2016,03,05,17,22,11.90
2016,03,05,17,23,11.90
2016,03,05,17,24,12.00
2016,03,05,17,25,12.10
2016,03,05,17,26,12.20
2016,03,05,17,27,12.50
2016,03,05,17,28,12.70
2016,03,05,17,29,12.90
2016,03,05,17,30,13.10
2016,03,05,17,31,13.30
2016,03,05,17,32,13.30
2016,03,05,17,33,13.30
2016,03,05,17,34,13.10
2016,03,05,17,35,13.10
2016,03,05,17,36,13.00
2016,03,05,17,37,12.90
2016,03,05,17,38,12.90
2016,03,05,17,39,12.90
2016,03,05,17,40,12.80
2016,03,05,17,41,12.70
2016,03,05,17,42,12.80
2016,03,05,17,43,13.00
2016,03,05,17,44,13.20
2016,03,05,17,45,13.40
2016,03,05,17,46,13.50
2016,03,05,17,47,13.60
2016,03,05,17,48,13.70
2016,03,05,17,49,13.70
2016,03,05,17,50,13.70
2016,03,05,17,51,13.70
2016,03,05,17,52,13.60
2016,03,05,17,53,13.50
2016,03,05,17,54,13.40
2016,03,05,17,55,13.40
2016,03,05,17,56,13.40
2016,03,05,17,57,13.40
2016,03,05,17,58,13.40
2016,03,05,17,59,13.30
2016,03,05,18,00,13.20
2016,03,05,18,01,13.20
2016,03,05,18,02,13.30
2016,03,05,18,03,13.30
2016,03,05,18,04,13.30
2016,03,05,18,05,13.40
2016,03,05,18,06,13.30
2016,03,05,18,07,13.10
2016,03,05,18,08,13.10
2016,03,05,18,09,13.00
2016,03,05,18,10,12.80
2016,03,05,18,11,12.70
2016,03,05,18,12,12.60
2016,03,05,18,13,12.60
2016,03,05,18,14,12.60
2016,03,05,18,15,12.50
2016,03,05,18,16,12.50